Snowfall_Accumulation
nan nan nan nan nan nan nan nan nan nan nan nan nan nan nan nan nan 0.0 0.0 0.0 0.1 2.4 0.3 0.0 0.0 0.1 0.0 0.2 3.1 0.0 2.2 0.8 2.3 5.6 3.3 0.7 0.3 0.0 0.0 0.0 0.0 0.9 3.6 4.3 2.4 2.8 0.8 0.0 0.0 0.0 0.0 0.0 0.0 0.0
nan nan nan nan nan nan nan nan nan nan nan nan nan nan nan nan nan nan 0.0 0.0 0.0 0.6 0.3 0.0 0.0 0.0 0.0 0.0 0.1 0.2 0.6 0.2 0.4 1.4 1.3 0.4 0.8 0.0 0.0 0.0 0.0 0.1 0.2 1.4 1.1 0.1 0.0 0.0 0.0 0.0 0.0 0.0 0.0 0.0
nan nan nan nan nan nan nan nan nan nan nan nan nan nan nan nan nan nan 0.0 0.0 0.0 0.4 0.1 0.0 0.0 0.0 0.0 0.0 0.0 3.8 0.3 0.0 0.2 0.0 2.4 2.7 4.1 0.9 1.2 0.1 0.0 0.0 0.0 0.0 0.0 0.0 0.0 0.0 0.0 0.0 0.0 0.0 0.0 0.0
nan nan nan nan nan nan nan nan nan nan nan nan nan nan nan nan nan nan 0.0 0.0 0.0 0.5 7.1 0.1 0.0 0.0 0.0 0.0 0.0 0.0 0.0 0.0 0.1 2.1 6.9 6.1 4.5 1.2 0.8 0.3 0.0 0.0 0.0 0.0 0.0 0.0 0.0 0.0 0.0 0.0 0.0 0.0 0.0 0.0
nan nan nan nan nan nan nan nan nan nan nan nan nan nan nan nan nan nan 0.0 0.0 0.0 0.7 3.9 0.4 0.0 0.0 0.0 0.0 0.0 0.0 0.0 0.0 0.0 0.5 2.5 3.8 0.2 0.5 0.4 0.2 0.0 0.0 0.0 0.0 0.0 0.0 0.0 0.0 0.0 0.0 0.0 0.0 0.0 0.0
nan nan nan nan nan nan nan nan nan nan nan nan nan nan nan nan nan 0.0 1.9 0.0 0.0 0.0 2.9 2.8 0.0 0.0 0.0 0.0 0.0 0.0 0.0 0.0 0.0 0.1 0.8 0.2 0.0 0.2 2.9 0.8 0.0 0.0 0.0 0.0 0.0 0.0 0.0 0.0 0.0 0.0 0.0 0.0 0.0 0.0
nan nan nan nan nan nan nan nan nan nan nan nan nan nan nan nan 0.0 0.1 0.3 0.0 nan 0.0 2.3 6.0 0.2 0.0 0.0 0.0 0.0 0.0 0.0 0.0 0.0 0.1 0.2 0.0 0.0 0.1 1.0 0.2 0.0 0.0 0.0 0.0 0.0 0.0 0.0 0.0 0.0 0.0 0.0 0.0 0.0 0.0
nan nan nan nan nan nan nan nan nan nan nan nan nan nan nan nan nan 0.1 0.0 nan nan 0.0 0.2 7.3 1.9 0.0 0.0 0.0 0.0 0.0 0.0 0.0 0.1 0.0 0.1 0.1 0.0 0.3 3.5 0.0 0.0 0.0 0.0 0.0 0.0 0.0 0.0 0.0 0.0 0.0 0.0 0.0 0.0 0.0
nan nan nan nan nan nan nan nan nan nan nan nan nan nan 0.0 0.1 0.4 0.0 nan nan 0.0 1.9 13.6 4.2 1.3 1.5 0.0 0.0 0.0 0.0 0.0 1.1 0.0 0.8 0.3 0.0 0.4 4.1 0.0 0.0 0.0 0.0 0.0 0.0 0.0 0.0 0.0 0.0 0.0 0.0 0.0 0.0 0.0 0.0
nan nan nan nan nan nan nan nan nan nan nan nan 0.0 0.1 1.4 0.6 nan nan 0.0 0.6 1.7 3.6 1.5 2.8 0.0 0.7 0.1 0.1 1.2 0.5 0.5 2.5 2.8 0.6 0.0 1.6 0.2 0.0 0.0 0.0 0.0 0.0 0.0 0.0 0.0 0.0 0.0 0.0 0.0 0.0 0.0 0.0 0.0 0.0
nan nan nan nan nan nan nan nan nan nan nan 0.0 0.4 0.6 0.0 nan 0.0 0.3 14.2 14.6 12.0 14.0 3.8 0.5 0.0 0.0 0.0 0.2 0.9 0.3 1.7 4.5 8.4 0.6 0.9 0.5 0.0 0.0 0.0 0.0 0.0 0.0 0.0 0.0 0.0 0.0 0.0 0.0 0.0 0.0 0.0 0.0 0.0 0.0
nan nan nan nan nan nan nan nan nan 0.0 0.1 0.1 0.0 0.0 0.0 2.8 9.9 19.3 20.9 10.4 3.8 2.2 0.6 0.1 0.1 0.0 0.0 0.0 0.5 1.0 1.1 1.8 3.9 0.3 4.5 1.0 0.0 0.0 0.0 0.0 0.0 0.0 0.0 0.0 0.0 0.0 0.0 0.0 0.0 0.0 0.0 0.0 0.0 0.0
nan nan nan nan nan nan nan nan nan nan nan 0.0 1.0 2.2 13.3 16.1 44.9 14.1 22.7 6.8 3.1 0.0 0.1 0.0 0.1 0.1 0.1 0.1 1.2 0.9 4.6 1.5 0.0 1.5 1.3 0.1 0.0 0.0 0.0 0.0 0.0 0.0 0.0 0.0 0.0 0.0 0.0 0.0 0.0 0.0 0.0 0.0 0.0 0.0
nan nan nan nan nan nan nan nan nan 0.0 0.0 4.5 17.6 51.8 16.9 15.4 3.9 2.6 1.3 1.6 0.1 0.2 0.6 0.2 0.3 0.3 0.0 0.5 0.8 2.5 0.9 1.5 4.4 0.6 0.1 0.0 0.0 0.0 0.0 0.0 0.0 0.0 0.0 0.0 0.0 0.0 0.0 0.0 0.0 0.0 0.0 0.0 0.0 0.0
nan nan nan nan nan nan nan nan nan 0.0 0.2 14.1 6.9 26.3 4.3 0.5 1.0 0.6 0.7 1.1 0.2 0.0 0.1 1.3 0.9 1.5 4.2 4.1 1.2 1.3 5.6 3.7 1.0 0.2 0.0 0.0 0.0 0.0 0.0 0.0 0.0 0.0 0.0 0.0 0.0 0.0 0.0 0.0 0.0 0.0 0.0 0.0 0.0 0.0
nan nan 0.0 nan nan nan nan nan 0.0 0.0 2.6 9.5 6.7 5.1 0.0 0.1 1.5 0.5 0.2 2.8 0.8 0.6 0.1 0.9 3.7 10.8 8.4 4.8 8.9 0.9 2.5 0.4 0.1 0.1 0.0 0.0 0.0 0.0 0.0 0.0 0.0 0.0 0.0 0.0 0.0 0.0 0.0 0.0 0.0 0.0 0.0 0.0 0.0 0.0
nan 0.0 nan nan nan nan nan 0.0 0.0 6.8 11.3 22.8 5.8 0.0 0.0 0.0 0.7 3.0 0.0 0.1 0.0 3.2 7.6 8.2 12.7 5.2 3.8 7.3 4.8 0.3 0.3 0.1 0.0 0.0 0.0 0.0 0.0 0.0 0.0 0.0 0.0 0.0 0.0 0.0 0.0 0.0 0.0 0.0 0.0 0.0 0.0 0.0 0.0 0.0
0.0 0.0 nan nan nan nan 0.1 0.3 9.0 18.1 27.5 5.9 1.2 0.0 0.0 0.0 0.0 0.1 0.0 0.0 0.1 1.9 3.0 7.4 3.4 7.4 6.8 5.0 1.2 1.2 0.2 0.0 0.0 0.0 0.0 0.0 0.0 0.0 0.0 0.0 0.0 0.0 0.0 0.0 0.0 0.0 0.0 0.0 0.0 0.0 0.0 0.0 0.0 0.0
0.0 0.0 nan nan 0.0 1.6 17.5 18.9 7.6 20.5 5.0 0.0 0.0 0.0 0.0 0.0 0.0 0.0 0.0 0.0 0.0 0.0 1.5 4.7 4.3 2.3 0.7 0.0 0.0 0.0 0.0 0.0 0.0 0.0 0.0 0.0 0.0 0.0 0.0 0.0 0.0 0.0 0.0 0.0 0.0 0.0 0.0 0.0 0.0 0.0 0.0 0.0 0.0 0.0
nan nan nan nan nan 3.6 25.2 26.2 3.5 3.8 1.9 0.3 0.0 0.0 0.0 0.0 0.0 0.0 0.7 0.3 1.4 1.9 5.5 10.3 1.5 0.0 0.0 0.0 0.0 0.0 0.0 0.0 0.0 0.0 0.0 0.0 0.0 0.0 0.0 0.0 0.0 0.0 0.0 0.0 0.0 nan 0.0 0.0 0.0 0.0 0.0 0.0 0.0 0.0
nan nan nan 0.1 1.8 2.5 3.5 11.6 7.2 2.6 0.5 0.3 0.0 0.0 0.2 0.0 0.0 0.0 0.0 0.0 1.8 2.8 1.3 0.3 1.6 0.6 0.0 0.0 0.0 0.0 0.0 0.0 0.0 0.0 0.0 0.0 0.0 0.0 0.0 0.0 0.0 0.0 0.0 0.0 0.0 0.0 0.0 0.0 0.0 0.0 0.0 0.0 0.0 0.0
0.2 nan 0.7 0.4 11.9 17.5 11.4 2.0 1.7 0.5 1.1 0.3 0.2 0.0 0.2 0.4 0.2 0.0 0.0 0.8 0.5 0.1 0.4 0.0 0.0 0.0 0.0 0.0 0.0 0.0 0.0 0.0 0.0 0.0 nan 0.0 0.0 0.0 0.0 0.0 0.0 0.1 0.1 0.0 0.0 0.0 0.0 0.0 0.0 0.0 0.0 0.0 0.0 0.0
nan 0.6 5.5 12.4 22.4 18.1 26.9 0.6 3.4 0.5 4.3 2.9 0.2 1.6 2.3 0.8 0.0 0.0 0.4 0.0 0.0 0.0 0.0 0.0 0.0 0.0 0.0 0.0 0.0 0.0 0.0 0.0 0.0 0.0 0.0 0.0 0.0 0.0 0.0 0.0 0.0 0.0 0.1 0.1 0.0 0.0 0.0 nan 0.0 0.0 0.0 0.0 0.0 0.0
nan 7.8 25.0 26.1 16.2 28.8 9.4 15.4 2.4 2.7 0.9 5.0 4.5 4.5 1.4 0.6 0.0 1.6 0.7 0.0 0.0 0.0 0.0 0.0 0.0 0.0 0.0 0.0 0.0 0.0 0.0 0.0 0.0 0.0 0.0 0.0 0.0 0.0 0.0 0.0 0.0 0.0 0.0 0.0 0.0 0.0 0.0 0.0 nan 0.0 0.0 0.0 0.0 0.0
28.3 55.6 22.7 45.2 8.0 11.1 5.9 5.4 2.9 2.0 5.6 1.6 4.7 3.7 2.1 0.3 2.3 1.4 0.1 0.0 0.0 0.0 0.0 0.0 0.0 0.0 0.0 0.0 0.0 0.0 0.0 0.0 0.0 0.0 0.0 0.0 0.0 0.0 0.0 0.0 0.0 0.0 0.0 0.0 0.0 0.0 0.0 0.0 0.0 0.0 0.0 0.0 0.0 0.0
60.9 25.7 27.9 6.4 4.1 1.2 1.1 2.7 1.7 0.3 0.4 3.5 1.2 0.5 0.5 1.4 3.3 2.0 0.1 0.0 0.0 0.0 0.0 0.0 0.0 0.0 0.0 0.0 0.0 0.0 0.0 0.0 0.0 0.0 0.0 0.0 0.0 0.0 0.0 0.1 0.5 0.1 0.0 0.0 0.0 0.0 0.0 0.0 0.0 0.0 0.0 0.0 nan 0.0
38.5 18.4 1.5 0.2 0.7 0.2 1.0 0.1 0.1 0.9 1.0 1.7 1.7 2.3 3.4 8.7 1.7 0.0 0.0 0.0 0.0 0.0 0.0 0.0 0.0 0.0 0.0 0.0 0.0 0.0 0.0 0.0 0.0 0.0 0.0 0.0 0.0 0.0 0.0 0.0 0.0 0.1 0.0 0.0 0.0 0.0 0.0 0.0 0.0 0.0 0.0 0.0 0.0 0.0
3.4 1.0 0.7 0.1 0.1 0.0 0.6 2.0 2.5 0.8 0.5 0.8 1.5 1.7 1.1 0.9 0.6 0.3 0.7 0.3 0.1 0.0 0.0 0.0 0.0 0.0 0.0 0.0 0.0 0.0 0.0 0.0 0.0 0.0 0.0 0.0 0.0 0.0 0.0 0.0 0.0 nan 0.0 0.0 0.0 0.0 0.0 0.0 0.0 0.0 0.0 0.0 0.0 0.0
1.1 1.0 1.7 5.9 1.3 0.4 0.8 0.1 0.3 0.0 0.0 0.0 0.2 1.4 0.3 0.1 0.2 0.3 0.4 0.2 0.0 0.0 0.0 0.0 0.0 0.0 0.0 0.0 0.0 0.0 0.0 0.0 0.0 0.0 0.0 0.2 0.0 0.0 0.0 0.0 0.0 0.0 0.0 0.0 nan nan 0.0 0.0 0.0 0.0 0.0 0.0 0.0 0.0
1.0 0.3 1.8 1.6 4.4 2.2 0.1 0.2 0.1 0.0 0.1 0.0 0.1 0.3 0.2 0.2 0.3 0.3 0.1 0.1 0.1 0.0 0.0 0.0 0.0 0.0 0.0 0.0 0.0 0.0 0.0 0.0 0.0 0.0 0.0 0.0 0.0 0.0 0.0 0.0 0.0 0.0 0.0 0.0 0.0 0.0 nan 0.0 nan 0.0 0.0 0.0 0.0 0.0
1.1 0.9 1.7 0.9 1.9 0.4 0.4 0.1 0.0 0.1 0.4 0.9 0.6 0.3 0.2 0.1 0.0 0.0 0.1 0.1 0.2 0.1 0.0 0.1 0.1 0.0 0.0 0.0 0.0 0.0 0.0 0.0 0.0 0.0 0.0 0.0 0.0 0.0 0.0 0.0 0.0 0.0 0.0 0.0 0.0 0.0 0.0 0.0 0.0 0.0 0.0 0.0 0.0 0.0
0.7 1.4 1.7 3.4 5.2 1.8 0.4 0.4 0.5 0.3 0.4 0.5 0.5 0.0 0.0 0.0 0.0 0.0 0.1 0.1 0.0 0.0 nan 0.0 0.0 0.0 0.0 0.0 0.0 0.0 nan 0.0 0.0 0.0 0.0 0.0 0.0 0.0 0.0 0.0 0.0 0.0 0.0 0.0 0.0 0.0 0.0 0.0 0.0 0.0 0.0 0.0 0.0 0.0
1.1 0.3 0.4 1.0 4.8 1.9 1.1 1.4 0.6 1.2 0.6 0.7 0.5 0.2 0.2 0.0 0.0 0.1 0.0 0.0 0.0 0.0 0.0 0.0 0.0 0.0 0.0 0.0 0.0 0.0 nan 0.0 0.0 nan nan nan nan nan 0.0 0.0 0.0 0.0 0.0 0.0 0.0 0.0 0.0 0.0 0.0 0.0 0.0 0.0 0.0 0.0
Water_Equivalent
nan nan nan nan nan nan nan nan nan nan nan nan nan nan nan nan nan 0.00 0.00 0.00 0.03 0.68 0.07 0.00 0.00 0.01 0.01 0.04 0.53 0.00 0.31 0.14 0.41 0.85 0.49 0.11 0.06 0.00 0.00 0.00 0.00 0.12 0.48 0.57 0.29 0.35 0.10 0.00 0.00 0.00 0.00 0.00 0.00 0.00
nan nan nan nan nan nan nan nan nan nan nan nan nan nan nan nan nan nan 0.00 0.00 0.00 0.19 0.06 0.00 0.00 0.00 0.00 0.00 0.02 0.05 0.10 0.04 0.08 0.22 0.20 0.07 0.12 0.01 0.00 0.01 0.00 0.03 0.03 0.20 0.19 0.02 0.00 0.00 0.00 0.00 0.00 0.00 0.00 0.00
nan nan nan nan nan nan nan nan nan nan nan nan nan nan nan nan nan nan 0.00 0.00 0.00 0.13 0.02 0.00 0.00 0.00 0.00 0.00 0.00 0.65 0.06 0.00 0.03 0.00 0.41 0.47 0.57 0.14 0.15 0.02 0.00 0.00 0.00 0.00 0.01 0.00 0.00 0.00 0.00 0.00 0.00 0.00 0.00 0.00
nan nan nan nan nan nan nan nan nan nan nan nan nan nan nan nan nan nan 0.00 0.00 0.00 0.19 1.47 0.03 0.00 0.00 0.00 0.00 0.00 0.00 0.00 0.00 0.03 0.48 1.22 0.96 0.67 0.21 0.11 0.04 0.01 0.00 0.00 0.00 0.01 0.00 0.00 0.00 0.00 0.00 0.00 0.00 0.00 0.00
nan nan nan nan nan nan nan nan nan nan nan nan nan nan nan nan nan nan 0.00 0.00 0.00 0.17 0.79 0.09 0.00 0.00 0.00 0.00 0.00 0.00 0.00 0.00 0.00 0.10 0.52 0.74 0.03 0.08 0.07 0.03 0.00 0.00 0.00 0.00 0.00 0.00 0.00 0.00 0.00 0.00 0.00 0.00 0.00 0.00
nan nan nan nan nan nan nan nan nan nan nan nan nan nan nan nan nan 0.00 0.64 0.01 0.00 0.00 0.66 0.57 0.00 0.00 0.00 0.00 0.00 0.00 0.00 0.00 0.00 0.03 0.16 0.03 0.00 0.05 0.58 0.14 0.00 0.00 0.00 0.00 0.00 0.00 0.00 0.00 0.00 0.00 0.00 0.00 0.00 0.00
nan nan nan nan nan nan nan nan nan nan nan nan nan nan nan nan 0.00 0.04 0.05 0.00 nan 0.00 0.56 1.18 0.07 0.00 0.00 0.00 0.00 0.00 0.00 0.00 0.00 0.01 0.04 0.00 0.00 0.03 0.22 0.04 0.00 0.00 0.00 0.00 0.00 0.00 0.00 0.00 0.00 0.00 0.00 0.00 0.00 0.00
nan nan nan nan nan nan nan nan nan nan nan nan nan nan nan nan nan 0.04 0.00 nan nan 0.01 0.05 1.58 0.46 0.00 0.00 0.00 0.00 0.00 0.00 0.00 0.02 0.00 0.01 0.01 0.00 0.06 0.67 0.00 0.00 0.00 0.00 0.00 0.00 0.00 0.00 0.00 0.00 0.00 0.00 0.00 0.00 0.00
nan nan nan nan nan nan nan nan nan nan nan nan nan nan 0.02 0.04 0.09 0.00 nan nan 0.00 0.60 4.21 1.13 0.35 0.40 0.00 0.00 0.00 0.00 0.00 0.24 0.01 0.15 0.08 0.00 0.08 0.72 0.00 0.00 0.00 0.00 0.00 0.00 0.00 0.00 0.00 0.00 0.00 0.00 0.00 0.00 0.00 0.00
nan nan nan nan nan nan nan nan nan nan nan nan 0.00 0.01 0.34 0.20 nan nan 0.00 0.15 0.47 1.03 0.35 0.61 0.00 0.21 0.01 0.02 0.29 0.09 0.12 0.49 0.50 0.12 0.01 0.27 0.03 0.00 0.00 0.00 0.00 0.00 0.00 0.00 0.00 0.00 0.00 0.00 0.00 0.00 0.00 0.00 0.00 0.00
nan nan nan nan nan nan nan nan nan nan nan 0.00 0.10 0.16 0.00 nan 0.01 0.08 3.56 3.26 2.74 2.64 0.93 0.11 0.00 0.00 0.00 0.04 0.18 0.05 0.36 1.03 1.47 0.12 0.13 0.09 0.01 0.00 0.00 0.00 0.00 0.00 0.00 0.00 0.00 0.00 0.00 0.00 0.00 0.00 0.00 0.00 0.00 0.00
nan nan nan nan nan nan nan nan nan 0.00 0.03 0.01 0.01 0.00 0.00 0.94 2.55 4.17 3.99 2.03 0.73 0.34 0.13 0.01 0.01 0.00 0.00 0.00 0.10 0.27 0.24 0.37 0.58 0.05 0.77 0.14 0.00 0.00 0.00 0.00 0.00 0.00 0.00 0.00 0.00 0.00 0.00 0.00 0.00 0.00 0.00 0.00 0.00 0.00
nan nan nan nan nan nan nan nan nan nan nan 0.00 0.22 0.46 3.43 3.96 8.52 2.44 3.09 1.15 0.60 0.01 0.02 0.01 0.03 0.02 0.02 0.02 0.21 0.21 0.78 0.27 0.01 0.27 0.21 0.01 0.00 0.00 0.00 0.00 0.00 0.00 0.00 0.00 0.00 0.00 0.00 0.00 0.00 0.00 0.00 0.00 0.00 0.00
nan nan nan nan nan nan nan nan nan 0.00 0.00 1.37 5.14 10.16 2.84 2.56 0.72 0.47 0.20 0.25 0.02 0.04 0.10 0.03 0.04 0.05 0.00 0.11 0.13 0.44 0.18 0.32 0.73 0.10 0.02 0.00 0.00 0.00 0.00 0.00 0.00 0.00 0.00 0.00 0.00 0.00 0.00 0.00 0.00 0.00 0.00 0.00 0.00 0.00
nan nan nan nan nan nan nan nan nan 0.00 0.05 3.61 1.85 4.46 0.77 0.11 0.18 0.10 0.14 0.21 0.05 0.00 0.01 0.24 0.18 0.25 0.70 0.79 0.27 0.28 0.83 0.61 0.17 0.05 0.00 0.00 0.00 0.00 0.00 0.00 0.00 0.00 0.00 0.00 0.00 0.00 0.00 0.00 0.00 0.00 0.00 0.00 0.00 0.00
nan nan 0.00 nan nan nan nan nan 0.00 0.00 0.74 2.39 1.72 1.01 0.01 0.02 0.29 0.11 0.03 0.51 0.17 0.14 0.02 0.17 0.78 1.84 1.62 0.85 1.39 0.16 0.47 0.10 0.01 0.01 0.00 0.00 0.00 0.00 0.00 0.00 0.00 0.00 0.00 0.00 0.00 0.00 0.00 0.00 0.00 0.00 0.00 0.00 0.00 0.00
nan 0.00 nan nan nan nan nan 0.00 0.00 2.13 3.07 6.53 1.22 0.00 0.00 0.00 0.11 0.61 0.00 0.02 0.00 0.97 1.36 1.43 2.08 0.85 0.61 1.32 0.87 0.09 0.10 0.02 0.00 0.00 0.00 0.00 0.00 0.00 0.00 0.00 0.00 0.00 0.00 0.00 0.00 0.00 0.00 0.00 0.00 0.00 0.00 0.00 0.00 0.00
0.00 0.00 nan nan nan nan 0.03 0.13 3.41 6.14 6.87 1.63 0.30 0.00 0.00 0.00 0.00 0.03 0.01 0.00 0.01 0.52 0.67 1.35 0.67 1.14 1.15 0.78 0.23 0.16 0.03 0.00 0.00 0.00 0.00 0.00 0.00 0.00 0.00 0.00 0.00 0.00 0.00 0.00 0.00 0.00 0.00 0.00 0.00 0.00 0.00 0.00 0.00 0.00
0.00 0.00 nan nan 0.00 0.53 5.64 6.31 2.75 5.07 1.33 0.01 0.00 0.00 0.00 0.00 0.00 0.00 0.00 0.00 0.00 0.00 0.44 1.22 0.91 0.42 0.09 0.00 0.00 0.00 0.00 0.00 0.00 0.00 0.00 0.00 0.00 0.00 0.00 0.00 0.00 0.00 0.00 0.00 0.00 0.00 0.00 0.00 0.00 0.00 0.00 0.00 0.01 0.00
nan nan nan nan nan 1.03 6.77 6.60 1.23 1.03 0.51 0.10 0.00 0.00 0.00 0.00 0.00 0.00 0.17 0.07 0.37 0.41 1.16 2.23 0.38 0.01 0.00 0.00 0.00 0.00 0.00 0.00 0.00 0.00 0.00 0.00 0.00 0.00 0.00 0.00 0.00 0.00 0.00 0.00 0.00 nan 0.00 0.00 0.00 0.00 0.00 0.00 0.00 0.00
nan nan nan 0.03 0.59 0.78 1.11 3.14 1.92 0.73 0.17 0.11 0.00 0.00 0.05 0.00 0.00 0.00 0.00 0.00 0.41 0.63 0.28 0.05 0.35 0.14 0.00 0.00 0.00 0.00 0.00 0.00 0.00 0.00 0.00 0.00 0.00 0.00 0.00 0.00 0.00 0.00 0.00 0.00 0.00 0.01 0.00 0.00 0.00 0.00 0.00 0.00 0.00 0.00
0.07 nan 0.19 0.11 3.70 6.48 3.34 0.61 0.45 0.17 0.35 0.09 0.04 0.01 0.04 0.10 0.07 0.01 0.00 0.22 0.14 0.01 0.09 0.00 0.00 0.00 0.00 0.00 0.00 0.00 0.00 0.00 0.00 0.00 nan 0.00 0.00 0.00 0.00 0.00 0.00 0.02 0.02 0.02 0.00 0.00 0.00 0.00 0.00 0.00 0.00 0.00 0.00 0.00
nan 0.19 1.66 4.11 6.32 4.75 6.04 0.18 0.83 0.16 0.86 0.76 0.06 0.39 0.52 0.19 0.00 0.00 0.12 0.00 0.00 0.00 0.00 0.00 0.00 0.00 0.00 0.00 0.00 0.00 0.00 0.00 0.00 0.00 0.00 0.00 0.00 0.00 0.00 0.00 0.00 0.00 0.04 0.03 0.00 0.00 0.00 nan 0.00 0.00 0.00 0.00 0.00 0.00
nan 2.29 7.45 6.15 3.86 5.02 3.08 3.02 0.73 0.70 0.29 1.04 0.95 0.82 0.31 0.17 0.01 0.38 0.15 0.00 0.00 0.00 0.00 0.00 0.00 0.00 0.00 0.00 0.00 0.00 0.00 0.00 0.00 0.00 0.00 0.00 0.00 0.00 0.00 0.00 0.00 0.00 0.00 0.00 0.00 0.00 0.00 0.00 nan 0.00 0.00 0.00 0.00 0.00
6.84 11.84 5.26 8.58 1.99 1.85 0.90 0.87 0.50 0.35 0.86 0.32 0.78 0.66 0.40 0.07 0.45 0.27 0.03 0.00 0.00 0.00 0.00 0.00 0.00 0.00 0.00 0.00 0.00 0.00 0.00 0.00 0.00 0.00 0.00 0.00 0.00 0.00 0.00 0.00 0.00 0.00 0.00 0.00 0.00 0.00 0.00 0.00 0.00 0.00 0.00 0.00 0.00 0.00
11.17 5.47 5.08 1.22 0.73 0.21 0.24 0.38 0.26 0.05 0.07 0.49 0.21 0.11 0.14 0.28 0.56 0.33 0.04 0.00 0.00 0.00 0.00 0.00 0.00 0.00 0.00 0.00 0.00 0.00 0.00 0.00 0.00 0.00 0.00 0.00 0.00 0.00 0.00 0.02 0.12 0.02 0.00 0.00 0.00 0.00 0.00 0.00 0.00 0.00 0.00 0.00 nan 0.00
5.95 2.81 0.36 0.05 0.10 0.02 0.18 0.01 0.01 0.14 0.14 0.25 0.30 0.36 0.58 1.12 0.27 0.01 0.00 0.00 0.01 0.00 0.00 0.00 0.00 0.00 0.00 0.00 0.00 0.00 0.00 0.00 0.00 0.00 0.00 0.00 0.00 0.00 0.00 0.01 0.00 0.01 0.00 0.00 0.00 0.00 0.00 0.00 0.00 0.00 0.00 0.00 0.00 0.00
0.60 0.17 0.09 0.01 0.01 0.00 0.08 0.26 0.31 0.11 0.10 0.14 0.22 0.26 0.18 0.17 0.13 0.05 0.11 0.05 0.01 0.00 0.00 0.00 0.00 0.00 0.00 0.00 0.00 0.00 0.00 0.00 0.00 0.00 0.00 0.00 0.00 0.00 0.00 0.00 0.00 nan 0.00 0.00 0.00 0.00 0.00 0.00 0.00 0.00 0.00 0.00 0.00 0.00
0.18 0.15 0.25 0.71 0.22 0.08 0.18 0.02 0.06 0.00 0.00 0.00 0.03 0.16 0.04 0.02 0.04 0.07 0.09 0.06 0.01 0.00 0.00 0.00 0.01 0.00 0.00 0.00 0.00 0.00 0.00 0.00 0.00 0.01 0.01 0.06 0.02 0.02 0.00 0.00 0.00 0.00 0.00 0.00 nan nan 0.00 0.00 0.00 0.00 0.00 0.00 0.00 0.00
0.23 0.04 0.25 0.22 0.53 0.29 0.02 0.03 0.01 0.00 0.02 0.01 0.02 0.04 0.03 0.05 0.12 0.12 0.05 0.03 0.02 0.01 0.00 0.01 0.01 0.00 0.00 0.00 0.01 0.01 0.00 0.00 0.00 0.00 0.00 0.00 0.00 0.00 0.00 0.00 0.00 0.00 0.00 0.00 0.00 0.00 nan 0.00 nan 0.00 0.00 0.00 0.00 0.00
0.18 0.12 0.25 0.13 0.28 0.08 0.06 0.02 0.01 0.01 0.05 0.13 0.09 0.05 0.04 0.04 0.00 0.02 0.03 0.06 0.08 0.06 0.02 0.04 0.02 0.00 0.00 0.00 0.00 0.00 0.00 0.00 0.00 0.00 0.00 0.00 0.00 0.00 0.00 0.00 0.00 0.00 0.00 0.00 0.00 0.00 0.00 0.00 0.00 0.00 0.00 0.01 0.00 0.00
0.10 0.18 0.22 0.41 0.68 0.34 0.08 0.07 0.09 0.07 0.08 0.08 0.10 0.01 0.00 0.00 0.00 0.00 0.03 0.02 0.00 0.00 nan 0.00 0.00 0.00 0.00 0.00 0.00 0.00 nan 0.00 0.00 0.00 0.00 0.00 0.00 0.00 0.00 0.00 0.00 0.00 0.00 0.00 0.00 0.00 0.00 0.00 0.00 0.00 0.00 0.01 0.00 0.00
0.24 0.08 0.07 0.18 0.84 0.32 0.20 0.23 0.11 0.23 0.12 0.13 0.10 0.05 0.05 0.00 0.00 0.01 0.01 0.01 0.00 0.00 0.00 0.00 0.00 0.00 0.00 0.00 0.00 0.00 nan 0.00 0.00 nan nan nan nan nan 0.00 0.00 0.00 0.00 0.00 0.00 0.00 0.00 0.01 0.01 0.00 0.00 0.00 0.00 0.00 0.00
SL_Ratio
nan nan nan nan nan nan nan nan nan nan nan nan nan nan nan nan nan nan nan nan 2.8 3.6 4.0 nan nan 5.0 5.4 5.0 5.8 5.0 7.1 5.7 5.6 6.6 6.8 6.3 5.7 nan 6.7 6.0 nan 7.3 7.5 7.5 8.1 8.2 7.8 nan nan nan nan nan nan nan
nan nan nan nan nan nan nan nan nan nan nan nan nan nan nan nan nan nan nan nan nan 3.3 4.9 nan nan nan nan nan 5.1 4.8 6.1 4.4 5.2 6.5 6.4 6.2 6.3 6.3 6.0 2.9 nan 3.9 6.5 6.8 5.8 6.1 nan nan nan nan nan nan nan nan
nan nan nan nan nan nan nan nan nan nan nan nan nan nan nan nan nan nan nan nan nan 3.4 4.1 3.3 nan nan nan nan nan 5.9 5.1 6.7 5.0 3.3 5.8 5.7 7.3 6.3 8.1 7.0 6.4 nan nan 5.7 5.5 nan nan nan nan nan nan nan nan nan
nan nan nan nan nan nan nan nan nan nan nan nan nan nan nan nan nan nan nan nan nan 2.8 4.8 3.8 nan nan nan nan nan nan nan nan 4.0 4.4 5.6 6.3 6.8 5.8 7.5 6.9 7.1 nan nan 6.7 5.9 nan nan nan nan nan nan nan nan nan
nan nan nan nan nan nan nan nan nan nan nan nan nan nan nan nan nan nan nan nan nan 4.2 5.0 4.2 nan nan nan nan nan nan nan nan 5.0 4.6 4.8 5.1 5.9 6.2 6.3 6.6 5.0 nan nan nan nan nan nan nan nan nan nan nan nan nan
nan nan nan nan nan nan nan nan nan nan nan nan nan nan nan nan nan nan 3.0 2.7 nan nan 4.5 5.0 nan nan nan nan nan nan nan nan nan 5.3 5.2 5.7 nan 4.9 4.9 5.9 nan nan nan nan nan nan nan nan nan nan nan nan nan nan
nan nan nan nan nan nan nan nan nan nan nan nan nan nan nan nan nan 3.7 5.3 nan nan nan 4.0 5.1 3.2 nan nan nan nan nan nan nan nan 5.9 5.7 6.7 nan 4.9 4.4 5.3 nan nan nan nan nan nan nan nan nan nan nan nan nan nan
nan nan nan nan nan nan nan nan nan nan nan nan nan nan nan nan nan 2.6 nan nan nan 3.1 4.0 4.6 4.1 nan nan nan 0.0 nan nan 6.2 6.1 5.4 4.6 5.7 10.0 5.2 5.3 nan nan nan nan nan nan nan nan nan nan nan nan nan nan nan
nan nan nan nan nan nan nan nan nan nan nan nan nan nan 2.4 2.5 4.7 7.5 nan nan nan 3.1 3.2 3.7 3.7 3.8 nan 6.2 5.5 5.0 5.0 4.5 4.8 5.5 3.7 10.0 5.5 5.7 nan nan nan nan nan nan nan nan nan nan nan nan nan nan nan nan
nan nan nan nan nan nan nan nan nan nan nan nan nan 4.3 4.0 2.7 nan nan 5.0 4.1 3.7 3.5 4.4 4.6 3.3 3.5 6.0 5.4 4.2 4.9 4.2 5.1 5.5 5.2 5.8 5.7 5.6 nan nan nan nan nan nan nan nan nan nan nan nan nan nan nan nan nan
nan nan nan nan nan nan nan nan nan nan nan 3.3 4.6 3.4 nan nan 2.6 3.4 4.0 4.5 4.4 5.3 4.0 4.5 nan nan nan 3.8 4.7 5.9 4.8 4.4 5.8 5.0 6.9 5.6 6.1 nan nan nan nan nan nan nan nan nan nan nan nan nan nan nan nan nan
nan nan nan nan nan nan nan nan nan nan 2.7 4.1 3.2 nan 2.0 3.0 3.9 4.6 5.2 5.1 5.1 6.4 4.8 5.0 3.8 10.0 7.1 nan 5.1 3.8 4.6 4.8 6.7 5.4 5.8 6.6 5.0 nan nan nan nan nan nan nan nan nan nan nan nan nan nan nan nan nan
nan nan nan nan nan nan nan nan nan nan nan nan 4.7 4.8 3.9 4.1 5.3 5.8 7.3 5.9 5.2 3.8 6.5 6.3 4.2 6.7 7.0 6.5 5.5 4.5 5.9 5.7 5.7 5.6 6.2 5.3 nan nan nan nan nan nan nan nan nan nan nan nan nan nan nan nan nan nan
nan nan nan nan nan nan nan nan nan nan 5.0 3.3 3.4 5.1 5.9 6.0 5.4 5.6 6.4 6.3 5.0 5.3 6.2 5.9 6.8 6.6 6.0 4.2 5.9 5.6 5.2 4.8 6.1 5.9 7.8 nan nan nan nan nan nan nan nan nan nan nan nan nan nan nan nan nan nan nan
nan nan nan nan nan nan nan nan nan nan 4.4 3.9 3.7 5.9 5.5 4.4 5.2 5.6 5.5 5.2 4.8 5.4 6.4 5.6 4.9 6.2 6.1 5.2 4.5 4.6 6.8 6.1 5.7 3.6 nan nan nan nan nan nan nan nan nan nan nan nan nan nan nan nan nan nan nan nan
nan nan nan nan nan nan nan nan nan nan 3.4 4.0 3.9 5.0 4.0 5.4 5.2 4.3 6.4 5.4 4.5 4.7 6.0 5.7 4.8 5.8 5.2 5.6 6.4 5.9 5.4 4.4 6.0 6.9 6.0 nan nan nan nan nan nan nan nan nan nan nan nan nan nan nan nan nan nan nan
nan 0.0 nan nan nan nan nan 5.0 0.0 3.2 3.7 3.5 4.7 5.0 nan 7.3 6.1 5.0 6.0 6.3 0.0 3.3 5.6 5.7 6.1 6.1 6.2 5.5 5.5 3.7 3.6 5.4 nan 5.7 nan nan nan nan nan nan nan nan nan nan nan nan nan nan nan nan nan nan nan nan
nan nan nan nan nan nan 2.6 2.8 2.6 3.0 4.0 3.7 4.0 4.0 10.0 nan 3.3 4.4 4.6 0.0 4.7 3.7 4.5 5.5 5.0 6.5 5.9 6.4 5.5 7.4 6.0 6.4 6.4 nan nan nan 0.0 nan nan nan nan nan nan nan nan nan nan nan nan 3.3 nan nan nan 0.0
nan nan nan nan nan 3.0 3.1 3.0 2.8 4.0 3.8 3.9 nan nan nan nan nan nan nan nan nan nan 3.4 3.8 4.7 5.4 8.0 6.7 5.7 nan nan 0.0 0.0 nan nan nan nan nan nan nan nan nan nan nan nan nan nan nan nan nan nan nan 2.6 2.0
nan nan nan nan nan 3.5 3.7 4.0 2.8 3.7 3.8 3.2 nan nan 10.0 4.6 nan nan 4.4 4.5 3.9 4.5 4.7 4.6 4.0 4.2 nan nan nan nan nan nan nan nan nan nan nan nan nan nan nan nan nan nan nan nan nan nan nan nan nan nan nan 3.3
nan nan nan 2.5 3.0 3.2 3.1 3.7 3.8 3.5 3.0 3.0 nan nan 3.6 nan nan nan nan nan 4.4 4.5 4.5 5.3 4.6 4.2 nan nan nan nan 2.0 nan nan nan nan 2.7 nan nan nan nan nan nan nan nan 3.1 2.5 nan nan nan nan nan nan nan nan
2.5 nan 3.5 4.0 3.2 2.7 3.4 3.2 3.7 3.2 3.2 3.0 4.3 5.2 3.6 3.9 3.3 2.6 nan 3.7 3.5 5.0 4.8 5.0 4.4 nan nan nan nan nan nan nan nan nan nan nan nan nan nan nan nan 2.6 2.5 2.5 nan nan nan nan nan nan nan nan nan nan
nan 3.4 3.3 3.0 3.5 3.8 4.5 3.0 4.1 2.9 5.0 3.9 3.5 4.0 4.4 4.0 nan nan 3.4 5.0 2.0 nan nan nan nan nan nan nan nan nan nan nan nan nan nan nan nan nan nan nan nan nan 2.5 2.6 nan nan nan nan nan nan nan nan nan nan
nan 3.4 3.4 4.2 4.2 5.7 3.0 5.1 3.3 3.9 3.2 4.8 4.8 5.4 4.4 3.9 2.9 4.4 4.7 nan nan nan nan nan nan nan nan nan nan nan nan nan nan nan nan nan nan 0.0 nan nan nan nan nan nan nan nan nan nan nan nan nan nan nan nan
4.1 4.7 4.3 5.3 4.0 6.0 6.5 6.2 5.7 5.6 6.5 4.9 6.0 5.6 5.1 4.8 5.2 5.2 4.2 nan nan nan nan nan nan nan nan nan nan nan nan nan nan nan nan nan nan nan nan nan nan nan nan nan nan nan nan nan nan nan nan nan nan nan
5.5 4.7 5.5 5.3 5.6 5.8 4.6 7.0 6.7 5.8 5.6 7.0 5.6 4.7 3.8 5.0 5.8 6.1 3.6 nan nan nan nan nan nan nan nan nan nan nan nan nan nan nan nan nan nan nan 2.7 2.9 4.4 3.3 nan nan nan nan nan nan nan nan nan nan nan nan
6.5 6.5 4.1 3.8 7.0 7.3 5.9 7.2 6.7 6.3 7.1 6.8 5.7 6.2 5.8 7.8 6.5 3.7 nan nan 2.6 nan nan nan nan nan nan nan nan nan nan nan nan nan nan nan nan nan nan 2.6 nan 4.0 nan nan nan nan nan nan nan nan nan nan nan nan
5.6 6.0 7.7 4.5 6.5 10.0 6.9 7.9 8.0 7.6 5.2 5.6 6.8 6.4 6.2 5.2 5.0 6.8 6.8 6.0 4.0 nan nan nan nan nan nan nan nan nan nan nan nan nan nan nan nan nan nan nan nan nan nan nan nan nan nan nan nan nan nan nan nan nan
6.1 6.4 7.1 8.4 5.7 4.6 4.2 4.7 5.0 7.1 6.0 8.3 6.3 8.7 6.7 6.5 4.5 3.7 4.2 2.7 2.6 nan 0.0 0.0 2.6 nan nan nan nan nan nan nan nan 2.8 2.7 2.5 2.5 2.5 nan nan nan nan nan nan nan nan nan nan nan nan nan nan nan nan
4.4 6.9 7.2 7.1 8.3 7.5 7.0 7.4 5.8 5.0 4.2 5.6 6.1 7.3 6.3 4.2 2.9 2.8 2.5 2.5 2.4 2.7 1.7 2.5 2.6 nan nan nan 2.5 2.5 nan nan nan nan nan 2.7 nan nan nan nan nan nan nan nan nan nan nan nan nan nan nan nan nan nan
6.3 7.3 6.9 6.7 7.0 5.0 6.2 7.3 4.8 6.7 6.7 6.8 6.8 5.8 4.5 3.3 2.5 2.5 2.4 2.5 2.5 2.5 2.4 2.5 2.5 nan nan nan nan nan nan nan nan nan nan nan nan nan nan nan nan nan nan nan nan nan nan nan nan nan nan 2.5 1.7 nan
6.8 7.7 7.7 8.3 7.6 5.2 5.3 5.2 5.3 5.0 5.4 5.7 4.9 4.4 nan nan nan nan 2.7 2.4 3.3 nan nan 0.0 nan nan nan nan nan nan nan nan nan nan nan nan nan nan nan nan nan nan nan nan nan nan nan nan nan nan 0.0 2.9 nan 5.0
4.5 4.3 4.8 5.3 5.7 6.0 5.6 6.3 5.1 5.3 5.0 5.1 4.9 4.0 3.6 4.3 5.0 4.8 3.1 2.9 nan nan nan nan nan nan nan nan nan nan nan nan nan nan nan nan nan nan nan nan nan nan nan nan nan nan 2.6 2.5 2.5 nan nan nan 3.0 3.3